sat.trackr.live / text

‹ back to catalog

ONEWEB-0179

NORAD 48212 · 2021-031C

PAYLOAD ACTIVE UNKNOWN

§ Identity

Operator
Country
UK
Launch date
2021-04-25
Launch site
VOSTO
Launch vehicle
Mass (kg)
RCS (m²)

Purposes: comms

External: N2YO · Heavens-Above · Gunter

§ Orbital elements

Epoch: 2026-09-13T01:48:19.293120Z

Period
98.77 min
Inclination
87.8935°
Eccentricity
0.0348847
Mean motion
14.57893217 rev/d
Perigee alt
453.1 km
Apogee alt
946.9 km
Semi-major
7,078.1 km
B*
1.9223e-4
RAAN
265.3315°
Arg perigee
324.3553°
Mean anomaly
33.4799°
Rev number
26,168

§ Raw data

ONEWEB-01791 48212U 21031C   26256.07522330  .00002096  00000+0  19223-3 0  99932 48212  87.8935 265.3315 0348847 324.3553  33.4799 14.57893217261688

JSON: /api/v1/satellites/48212 · /tle

For live sub-satellite position, see the globe view (requires WebGL).

§ Visibility from observer

Set your observer location to see the next 7 days of passes ≥ 10°. The values pass through the URL so the page stays shareable.

No JS? Fill the form by hand. The geolocation button needs JavaScript.